Flag for United Kingdom Weather past 2 weeks in Newtown, Wales, United Kingdom

Now
44 °F

Quite cool.


Feels Like: 34 °F
Forecast: 40 / 48 °F
Wind: 32 mph from Southwest

Location: Lake Vyrnwy

Current Time: Mar 29, 2015 at 12:25:03 AM

Latest Report: Mar 28, 2015 at 11:00 PM


Visibility: 13 mi

Pressure: 29.59 "Hg

Humidity: 90%

Dew point: 41 °F

Location of NewtownLocation

Historic Weather in Newtown — Graph

°F

Newtown temperature yesterday

Maximum temperature yesterday: 48 °F (at 8:00 AM)
Minimum temperature yesterday: 41 °F (at 12:00 AM)
Average temperature yesterday: 46 °F

Past Weeks' High & Low Weather Summary

 TemperatureHumidityPressure
High51 °F (Mar 20, 3:00 PM)98% (Mar 28, 2:00 PM)30.60 "Hg (Mar 28, 2:00 PM)
Low29 °F (Mar 22, 5:00 AM)55% (Mar 22, 4:00 PM)29.44 "Hg (Mar 26, 5:00 AM)
Average39 °F82%30.20 "Hg
* Reported Mar 13 11:00 PM — Mar 28 11:00 PM, Newtown, Weather by CustomWeather, © 2015

Note: Actual official high and low records may vary slightly from our data, if they occured in-between our weather recording intervals... More about our weather records

Advertising

Newtown weather history for previous 24 hours

 ConditionsComfort  
Time TempWeatherWind HumidityBarometerVisibility
11:00 PM
Sat, Mar 28
44 °FQuite cool.32 mph90%29.59 "Hg13 mi
10:00 PM44 °FQuite cool.28 mph95%29.61 "Hg2 mi
8:00 PM44 °FQuite cool.22 mph92%29.64 "Hg5 mi
7:00 PM47 °FCool.28 mph78%29.64 "Hg17 mi
6:00 PM47 °FCool.18 mph90%29.63 "Hg11 mi
5:00 PM47 °FCool.24 mph94%29.62 "Hg9 mi
4:00 PM47 °FCool.24 mph97%29.62 "Hg6 mi
3:00 PM47 °FCool.30 mph97%29.62 "Hg3 mi
2:00 PM47 °FCool.38 mph98%29.63 "Hg1 mi
1:00 PM47 °FCool.35 mph97%29.63 "Hg1 mi
12:00 PM47 °FCool.39 mph97%29.63 "Hg1 mi
11:00 AM48 °FCool.35 mph95%29.67 "Hg2 mi
10:00 AM48 °FCool.36 mph95%29.68 "Hg2 mi
9:00 AM48 °FCool.35 mph95%29.70 "Hg3 mi
8:00 AM48 °FCool.35 mph94%29.71 "Hg2 mi
7:00 AM48 °FCool.29 mph97%29.74 "Hg6 mi
6:00 AM47 °FCool.24 mph97%29.80 "Hg2 mi
5:00 AM47 °FCool.17 mph97%29.82 "Hg1 mi
4:00 AM46 °FCool.16 mph97%29.85 "Hg1 mi
3:00 AM45 °FCool.17 mph97%29.89 "Hg2 mi
2:00 AM43 °FQuite cool.9 mph97%29.93 "Hg0 mi
1:00 AM42 °FQuite cool.3 mph96%29.97 "Hg1 mi
12:00 AM41 °FQuite cool.5 mph95%30.00 "Hg2 mi
Weather by CustomWeather, © 2015

See weather overviewHow to use our weather pages